Time,TemperatureF,DewpointF,PressureIn,WindDirection,WindDirectionDegrees,WindSpeedMPH,WindSpeedGustMPH,Humidity,HourlyPrecipIn,Conditions,Clouds,dailyrainin,SoftwareType,DateUTC
2013-01-15 00:00:00,15.0,14.5,30.45,SSW,202,0.0,0.0,98,0.00,,,-99.99,Weather View 32 v60,2013-01-15 06:00:00,
2013-01-15 00:15:00,14.0,14.0,30.46,SSW,202,0.0,0.0,100,0.00,,,-99.99,Weather View 32 v60,2013-01-15 06:15:00,
2013-01-15 00:30:00,14.0,14.0,30.45,WSW,247,0.0,0.0,100,0.00,,,-99.99,Weather View 32 v60,2013-01-15 06:30:00,
2013-01-15 00:45:00,13.0,13.0,30.46,SW,225,0.0,0.0,100,0.00,,,-99.99,Weather View 32 v60,2013-01-15 06:45:00,
2013-01-15 01:00:00,13.0,13.0,30.45,WSW,247,0.0,0.0,100,0.00,,,-99.99,Weather View 32 v60,2013-01-15 07:00:00,
2013-01-15 01:15:00,13.0,13.0,30.45,WSW,247,0.0,0.0,100,0.00,,,-99.99,Weather View 32 v60,2013-01-15 07:15:00,
2013-01-15 01:30:00,12.0,12.0,30.46,WSW,247,0.0,0.0,100,0.00,,,-99.99,Weather View 32 v60,2013-01-15 07:30:00,
2013-01-15 01:45:00,13.0,13.0,30.45,SSW,202,0.0,0.0,100,0.00,,,-99.99,Weather View 32 v60,2013-01-15 07:45:00,
2013-01-15 02:15:00,12.0,12.0,30.46,SW,225,0.0,0.0,100,0.00,,,-99.99,Weather View 32 v60,2013-01-15 08:15:00,
2013-01-15 02:30:00,13.0,13.0,30.44,SW,225,0.0,0.0,100,0.00,,,-99.99,Weather View 32 v60,2013-01-15 08:30:00,
2013-01-15 02:45:00,13.0,13.0,30.44,WSW,247,0.0,0.0,100,0.00,,,-99.99,Weather View 32 v60,2013-01-15 08:45:00,
2013-01-15 03:00:00,14.0,14.0,30.44,SW,225,0.0,0.0,100,0.00,,,-99.99,Weather View 32 v60,2013-01-15 09:00:00,
2013-01-15 03:15:00,15.0,15.0,30.44,WSW,247,0.0,0.0,100,0.00,,,-99.99,Weather View 32 v60,2013-01-15 09:15:00,
2013-01-15 03:30:00,15.0,15.0,30.44,WSW,247,0.0,0.0,100,0.00,,,-99.99,Weather View 32 v60,2013-01-15 09:30:00,
2013-01-15 03:45:00,16.0,15.8,30.43,SSW,202,0.0,0.0,99,0.00,,,-99.99,Weather View 32 v60,2013-01-15 09:45:00,
2013-01-15 04:00:00,16.0,15.8,30.43,SW,225,0.0,0.0,99,0.00,,,-99.99,Weather View 32 v60,2013-01-15 10:00:00,
2013-01-15 04:15:00,17.0,16.3,30.42,West,270,0.0,0.0,97,0.00,,,-99.99,Weather View 32 v60,2013-01-15 10:15:00,
2013-01-15 04:30:00,17.0,16.5,30.42,WSW,247,0.0,0.0,98,0.00,,,-99.99,Weather View 32 v60,2013-01-15 10:30:00,
2013-01-15 04:45:00,17.0,16.3,30.42,West,270,0.0,1.0,97,0.00,,,-99.99,Weather View 32 v60,2013-01-15 10:45:00,
2013-01-15 05:00:00,17.0,15.8,30.42,WSW,247,0.0,1.0,95,0.00,,,-99.99,Weather View 32 v60,2013-01-15 11:00:00,
2013-01-15 05:15:00,17.0,16.1,30.41,WSW,247,0.0,2.0,96,0.00,,,-99.99,Weather View 32 v60,2013-01-15 11:15:00,
2013-01-15 05:30:00,18.0,16.6,30.40,West,270,0.0,4.0,94,0.00,,,-99.99,Weather View 32 v60,2013-01-15 11:30:00,
2013-01-15 05:45:00,18.0,16.6,30.40,WSW,247,0.0,6.0,94,0.00,,,-99.99,Weather View 32 v60,2013-01-15 11:45:00,
2013-01-15 06:00:00,18.0,16.6,30.40,WSW,247,0.0,6.0,94,0.00,,,-99.99,Weather View 32 v60,2013-01-15 12:00:00,
2013-01-15 06:15:00,18.0,16.6,30.40,WSW,247,0.0,6.0,94,0.00,,,-99.99,Weather View 32 v60,2013-01-15 12:15:00,
2013-01-15 06:30:00,18.0,16.6,30.40,SW,225,0.0,6.0,94,0.00,,,-99.99,Weather View 32 v60,2013-01-15 12:30:00,
2013-01-15 06:46:00,17.0,15.8,30.40,West,270,0.0,4.0,95,0.00,,,-99.99,Weather View 32 v60,2013-01-15 12:46:00,
2013-01-15 07:00:00,17.0,16.3,30.40,WSW,247,0.0,1.0,97,0.00,,,-99.99,Weather View 32 v60,2013-01-15 13:00:00,
2013-01-15 07:15:00,17.0,16.3,30.40,WSW,247,0.0,1.0,97,0.00,,,-99.99,Weather View 32 v60,2013-01-15 13:15:00,
2013-01-15 07:30:00,16.0,15.5,30.41,WSW,247,0.0,1.0,98,0.00,,,-99.99,Weather View 32 v60,2013-01-15 13:30:00,
2013-01-15 07:45:00,16.0,15.5,30.41,WSW,247,0.0,1.0,98,0.00,,,-99.99,Weather View 32 v60,2013-01-15 13:45:00,
2013-01-15 08:00:00,16.0,15.8,30.40,SW,225,0.0,1.0,99,0.00,,,-99.99,Weather View 32 v60,2013-01-15 14:00:00,
2013-01-15 08:15:00,15.0,14.8,30.41,SW,225,0.0,1.0,99,0.00,,,-99.99,Weather View 32 v60,2013-01-15 14:15:00,
2013-01-15 08:30:00,16.0,15.8,30.40,WSW,247,0.0,1.0,99,0.00,,,-99.99,Weather View 32 v60,2013-01-15 14:30:00,
2013-01-15 08:45:00,18.0,17.1,30.41,SSW,202,0.0,4.0,96,0.00,,,-99.99,Weather View 32 v60,2013-01-15 14:45:00,
2013-01-15 09:00:00,19.0,17.3,30.40,SSW,202,2.0,6.0,93,0.00,,,-99.99,Weather View 32 v60,2013-01-15 15:00:00,
2013-01-15 09:15:00,20.0,16.5,30.40,West,270,0.0,9.0,86,0.00,,,-99.99,Weather View 32 v60,2013-01-15 15:15:00,
2013-01-15 09:30:00,21.0,16.7,30.39,SW,225,0.0,9.0,83,0.00,,,-99.99,Weather View 32 v60,2013-01-15 15:30:00,
2013-01-15 09:45:00,21.0,16.4,30.39,SW,225,0.0,9.0,82,0.00,,,-99.99,Weather View 32 v60,2013-01-15 15:45:00,
2013-01-15 10:00:00,22.0,16.8,30.38,South,180,0.0,9.0,80,0.00,,,-99.99,Weather View 32 v60,2013-01-15 16:00:00,
2013-01-15 10:15:00,23.0,16.6,30.38,SW,225,2.0,10.0,76,0.00,,,-99.99,Weather View 32 v60,2013-01-15 16:15:00,
2013-01-15 10:30:00,24.0,16.9,30.37,West,270,9.0,11.0,74,0.00,,,-99.99,Weather View 32 v60,2013-01-15 16:30:00,
2013-01-15 10:45:00,26.0,17.9,30.36,SW,225,5.0,13.0,71,0.00,,,-99.99,Weather View 32 v60,2013-01-15 16:45:00,
2013-01-15 11:00:00,26.0,17.2,30.35,SW,225,0.0,13.0,69,0.00,,,-99.99,Weather View 32 v60,2013-01-15 17:00:00,
2013-01-15 11:15:00,28.0,18.1,30.34,SW,225,8.0,13.0,66,0.00,,,-99.99,Weather View 32 v60,2013-01-15 17:15:00,
2013-01-15 11:30:00,29.0,18.0,30.33,West,270,0.0,13.0,63,0.00,,,-99.99,Weather View 32 v60,2013-01-15 17:30:00,
2013-01-15 11:45:00,30.0,18.6,30.31,WSW,247,5.0,13.0,62,0.00,,,-99.99,Weather View 32 v60,2013-01-15 17:45:00,
2013-01-15 12:00:00,30.0,18.2,30.30,WSW,247,7.0,15.0,61,0.00,,,-99.99,Weather View 32 v60,2013-01-15 18:00:00,
2013-01-15 12:15:00,30.0,17.8,30.30,SW,225,2.0,15.0,60,0.00,,,-99.99,Weather View 32 v60,2013-01-15 18:15:00,
2013-01-15 12:30:00,31.0,18.7,30.29,SW,225,1.0,15.0,60,0.00,,,-99.99,Weather View 32 v60,2013-01-15 18:30:00,
2013-01-15 12:45:00,31.0,18.3,30.28,WSW,247,5.0,16.0,59,0.00,,,-99.99,Weather View 32 v60,2013-01-15 18:45:00,
2013-01-15 13:00:00,32.0,19.3,30.27,WSW,247,7.0,16.0,59,0.00,,,-99.99,Weather View 32 v60,2013-01-15 19:00:00,
2013-01-15 13:15:00,33.0,19.0,30.26,WSW,247,7.0,16.0,56,0.00,,,-99.99,Weather View 32 v60,2013-01-15 19:15:00,
2013-01-15 13:30:00,33.0,18.2,30.26,WSW,247,4.0,22.0,54,0.00,,,-99.99,Weather View 32 v60,2013-01-15 19:30:00,
2013-01-15 13:45:00,34.0,18.6,30.25,WSW,247,3.0,22.0,53,0.00,,,-99.99,Weather View 32 v60,2013-01-15 19:45:00,
2013-01-15 14:00:00,35.0,18.7,30.24,SSW,202,6.0,22.0,51,0.00,,,-99.99,Weather View 32 v60,2013-01-15 20:00:00,
2013-01-15 14:15:00,35.0,19.1,30.24,SW,225,2.0,22.0,52,0.00,,,-99.99,Weather View 32 v60,2013-01-15 20:15:00,
2013-01-15 14:30:00,34.0,17.8,30.24,WSW,247,5.0,16.0,51,0.00,,,-99.99,Weather View 32 v60,2013-01-15 20:30:00,
2013-01-15 14:45:00,35.0,18.7,30.24,SSW,202,3.0,16.0,51,0.00,,,-99.99,Weather View 32 v60,2013-01-15 20:45:00,
2013-01-15 14:50:00,35.0,18.7,30.24,SSW,202,3.0,16.0,51,0.00,,,-99.99,Weather View 32 v60,2013-01-15 20:50:00,
2013-01-15 15:00:00,35.0,18.2,30.24,SW,225,10.0,16.0,50,0.00,,,-99.99,Weather View 32 v60,2013-01-15 21:00:00,
2013-01-15 15:15:00,35.0,18.7,30.22,SSW,202,0.0,15.0,51,0.00,,,-99.99,Weather View 32 v60,2013-01-15 21:15:00,
2013-01-15 15:30:00,35.0,17.8,30.22,WSW,247,5.0,15.0,49,0.00,,,-99.99,Weather View 32 v60,2013-01-15 21:30:00,
2013-01-15 15:45:00,34.0,17.8,30.23,WSW,247,0.0,17.0,51,0.00,,,-99.99,Weather View 32 v60,2013-01-15 21:45:00,
2013-01-15 15:51:00,34.0,17.8,30.23,WSW,247,0.0,17.0,51,0.00,,,-99.99,Weather View 32 v60,2013-01-15 21:51:00,
2013-01-15 16:00:00,34.0,17.8,30.22,WSW,247,7.0,17.0,51,0.00,,,-99.99,Weather View 32 v60,2013-01-15 22:00:00,
2013-01-15 16:15:00,33.0,16.8,30.22,WSW,247,6.0,17.0,51,0.00,,,-99.99,Weather View 32 v60,2013-01-15 22:15:00,
2013-01-15 16:30:00,33.0,18.2,30.23,WSW,247,0.0,17.0,54,0.00,,,-99.99,Weather View 32 v60,2013-01-15 22:30:00,
2013-01-15 16:45:00,32.0,18.1,30.23,West,270,0.0,17.0,56,0.00,,,-99.99,Weather View 32 v60,2013-01-15 22:45:00,
2013-01-15 16:51:00,32.0,18.1,30.23,West,270,0.0,17.0,56,0.00,,,-99.99,Weather View 32 v60,2013-01-15 22:51:00,
2013-01-15 17:00:00,32.0,18.5,30.23,West,270,1.0,15.0,57,0.00,,,-99.99,Weather View 32 v60,2013-01-15 23:00:00,
2013-01-15 17:15:00,31.0,18.7,30.23,WSW,247,0.0,15.0,60,0.00,,,-99.99,Weather View 32 v60,2013-01-15 23:15:00,
2013-01-15 17:30:00,30.0,18.6,30.24,WSW,247,0.0,14.0,62,0.00,,,-99.99,Weather View 32 v60,2013-01-15 23:30:00,
2013-01-15 17:45:00,29.0,18.3,30.24,SW,225,0.0,14.0,64,0.00,,,-99.99,Weather View 32 v60,2013-01-15 23:45:00,
2013-01-15 17:52:00,29.0,18.3,30.24,SW,225,0.0,14.0,64,0.00,,,-99.99,Weather View 32 v60,2013-01-15 23:52:00,
2013-01-15 18:00:00,29.0,18.7,30.23,SW,225,0.0,10.0,65,0.00,,,-99.99,Weather View 32 v60,2013-01-16 00:00:00,
2013-01-15 18:15:00,28.0,18.1,30.23,SW,225,0.0,10.0,66,0.00,,,-99.99,Weather View 32 v60,2013-01-16 00:15:00,
2013-01-15 18:30:00,28.0,18.5,30.22,WSW,247,0.0,10.0,67,0.00,,,-99.99,Weather View 32 v60,2013-01-16 00:30:00,
2013-01-15 18:45:00,27.0,19.2,30.23,SSW,202,10.0,10.0,72,0.00,,,-99.99,Weather View 32 v60,2013-01-16 00:45:00,
2013-01-15 18:53:00,27.0,19.2,30.23,SSW,202,10.0,10.0,72,0.00,,,-99.99,Weather View 32 v60,2013-01-16 00:53:00,
2013-01-15 19:00:00,27.0,20.4,30.23,SSW,202,6.0,12.0,76,0.00,,,-99.99,Weather View 32 v60,2013-01-16 01:00:00,
2013-01-15 19:15:00,27.0,21.1,30.23,WSW,247,5.0,12.0,78,0.00,,,-99.99,Weather View 32 v60,2013-01-16 01:15:00,
2013-01-15 19:30:00,26.0,21.0,30.23,WSW,247,1.0,12.0,81,0.00,,,-99.99,Weather View 32 v60,2013-01-16 01:30:00,
2013-01-15 19:45:00,26.0,21.0,30.22,SW,225,0.0,15.0,81,0.00,,,-99.99,Weather View 32 v60,2013-01-16 01:45:00,
2013-01-15 19:53:00,26.0,21.0,30.22,SW,225,0.0,15.0,81,0.00,,,-99.99,Weather View 32 v60,2013-01-16 01:53:00,
2013-01-15 20:00:00,26.0,21.0,30.21,WSW,247,0.0,15.0,81,0.00,,,-99.99,Weather View 32 v60,2013-01-16 02:00:00,
2013-01-15 20:15:00,26.0,21.0,30.21,SW,225,0.0,15.0,81,0.00,,,-99.99,Weather View 32 v60,2013-01-16 02:15:00,
2013-01-15 20:30:00,25.0,20.0,30.20,WSW,247,8.0,16.0,81,0.00,,,-99.99,Weather View 32 v60,2013-01-16 02:30:00,
2013-01-15 20:45:00,25.0,20.0,30.20,WSW,247,0.0,16.0,81,0.00,,,-99.99,Weather View 32 v60,2013-01-16 02:45:00,
2013-01-15 20:54:00,25.0,20.0,30.20,WSW,247,0.0,16.0,81,0.00,,,-99.99,Weather View 32 v60,2013-01-16 02:54:00,
2013-01-15 21:00:00,25.0,20.0,30.20,SW,225,2.0,16.0,81,0.00,,,-99.99,Weather View 32 v60,2013-01-16 03:00:00,
2013-01-15 21:15:00,24.0,19.3,30.18,SW,225,0.0,16.0,82,0.00,,,-99.99,Weather View 32 v60,2013-01-16 03:15:00,
2013-01-15 21:30:00,24.0,19.6,30.19,SSW,202,0.0,13.0,83,0.00,,,-99.99,Weather View 32 v60,2013-01-16 03:30:00,
2013-01-15 21:45:00,24.0,19.6,30.18,SW,225,13.0,13.0,83,0.00,,,-99.99,Weather View 32 v60,2013-01-16 03:45:00,
2013-01-15 21:54:00,24.0,19.6,30.18,SW,225,13.0,13.0,83,0.00,,,-99.99,Weather View 32 v60,2013-01-16 03:54:00,
2013-01-15 22:00:00,23.0,19.2,30.18,WSW,247,6.0,13.0,85,0.00,,,-99.99,Weather View 32 v60,2013-01-16 04:00:00,
2013-01-15 22:15:00,23.0,19.2,30.17,WSW,247,2.0,13.0,85,0.00,,,-99.99,Weather View 32 v60,2013-01-16 04:15:00,
2013-01-15 22:30:00,23.0,19.2,30.17,WSW,247,0.0,13.0,85,0.00,,,-99.99,Weather View 32 v60,2013-01-16 04:30:00,
2013-01-15 22:45:00,22.0,17.9,30.17,SW,225,1.0,13.0,84,0.00,,,-99.99,Weather View 32 v60,2013-01-16 04:45:00,
2013-01-15 23:15:00,22.0,17.4,30.16,West,270,0.0,15.0,82,0.00,,,-99.99,Weather View 32 v60,2013-01-16 05:15:00,
2013-01-15 23:30:00,22.0,16.8,30.16,SW,225,1.0,15.0,80,0.00,,,-99.99,Weather View 32 v60,2013-01-16 05:30:00,
2013-01-15 23:45:00,22.0,16.8,30.16,WSW,247,0.0,15.0,80,0.00,,,-99.99,Weather View 32 v60,2013-01-16 05:45:00,